Year,Month,Day,Hour,Minute,Value (Times are PST for temperature in C)
2018,05,23,00,00,14.90
2018,05,23,00,01,14.80
2018,05,23,00,02,14.80
2018,05,23,00,03,14.80
2018,05,23,00,04,14.80
2018,05,23,00,05,14.80
2018,05,23,00,06,14.80
2018,05,23,00,07,14.70
2018,05,23,00,08,14.70
2018,05,23,00,09,14.70
2018,05,23,00,10,14.70
2018,05,23,00,11,14.70
2018,05,23,00,12,14.60
2018,05,23,00,13,14.60
2018,05,23,00,14,14.60
2018,05,23,00,15,14.60
2018,05,23,00,16,14.50
2018,05,23,00,17,14.50
2018,05,23,00,18,14.50
2018,05,23,00,19,14.50
2018,05,23,00,20,14.40
2018,05,23,00,21,14.40
2018,05,23,00,22,14.40
2018,05,23,00,23,14.40
2018,05,23,00,24,14.30
2018,05,23,00,25,14.30
2018,05,23,00,26,14.30
2018,05,23,00,27,14.30
2018,05,23,00,28,14.30
2018,05,23,00,29,14.20
2018,05,23,00,30,14.20
2018,05,23,00,31,14.20
2018,05,23,00,32,14.20
2018,05,23,00,33,14.20
2018,05,23,00,34,14.20
2018,05,23,00,35,14.20
2018,05,23,00,36,14.20
2018,05,23,00,37,14.20
2018,05,23,00,38,14.20
2018,05,23,00,39,14.20
2018,05,23,00,40,14.20
2018,05,23,00,41,14.20
2018,05,23,00,42,14.20
2018,05,23,00,43,14.10
2018,05,23,00,44,14.10
2018,05,23,00,45,14.10
2018,05,23,00,46,14.10
2018,05,23,00,47,14.10
2018,05,23,00,48,14.10
2018,05,23,00,49,14.00
2018,05,23,00,50,14.00
2018,05,23,00,51,14.00
2018,05,23,00,52,14.00
2018,05,23,00,53,14.00
2018,05,23,00,54,14.00
2018,05,23,00,55,13.90
2018,05,23,00,56,13.90
2018,05,23,00,57,13.90
2018,05,23,00,58,13.90
2018,05,23,00,59,13.90
2018,05,23,01,00,13.90
2018,05,23,01,01,14.00
2018,05,23,01,02,14.00
2018,05,23,01,03,14.00
2018,05,23,01,04,14.00
2018,05,23,01,05,14.00
2018,05,23,01,06,14.00
2018,05,23,01,07,14.00
2018,05,23,01,08,13.90
2018,05,23,01,09,13.90
2018,05,23,01,10,13.90
2018,05,23,01,11,13.90
2018,05,23,01,12,13.90
2018,05,23,01,13,13.90
2018,05,23,01,14,13.90
2018,05,23,01,15,13.90
2018,05,23,01,16,13.90
2018,05,23,01,17,13.90
2018,05,23,01,18,13.80
2018,05,23,01,19,13.80
2018,05,23,01,20,13.80
2018,05,23,01,21,13.80
2018,05,23,01,22,13.80
2018,05,23,01,23,13.70
2018,05,23,01,24,13.70
2018,05,23,01,25,13.70
2018,05,23,01,26,13.70
2018,05,23,01,27,13.70
2018,05,23,01,28,13.70
2018,05,23,01,29,13.70
2018,05,23,01,30,13.70
2018,05,23,01,31,13.60
2018,05,23,01,32,13.60
2018,05,23,01,33,13.60
2018,05,23,01,34,13.60
2018,05,23,01,35,13.60
2018,05,23,01,36,13.50
2018,05,23,01,37,13.50
2018,05,23,01,38,13.50
2018,05,23,01,39,13.50
2018,05,23,01,40,13.50
2018,05,23,01,41,13.40
2018,05,23,01,42,13.40
2018,05,23,01,43,13.40
2018,05,23,01,44,13.40
2018,05,23,01,45,13.30
2018,05,23,01,46,13.30
2018,05,23,01,47,13.30
2018,05,23,01,48,13.30
2018,05,23,01,49,13.30
2018,05,23,01,50,13.30
2018,05,23,01,51,13.30
2018,05,23,01,52,13.20
2018,05,23,01,53,13.20
2018,05,23,01,54,13.20
2018,05,23,01,55,13.20
2018,05,23,01,56,13.20
2018,05,23,01,57,13.10
2018,05,23,01,58,13.10
2018,05,23,01,59,13.10
2018,05,23,02,00,13.10
2018,05,23,02,01,13.10
2018,05,23,02,02,13.10
2018,05,23,02,03,13.00
2018,05,23,02,04,13.00
2018,05,23,02,05,13.00
2018,05,23,02,06,13.00
2018,05,23,02,07,13.00
2018,05,23,02,08,13.00
2018,05,23,02,09,13.00
2018,05,23,02,10,12.90
2018,05,23,02,11,12.90
2018,05,23,02,12,12.90
2018,05,23,02,13,12.90
2018,05,23,02,14,12.90
2018,05,23,02,15,12.90
2018,05,23,02,16,12.80
2018,05,23,02,17,12.80
2018,05,23,02,18,12.80
2018,05,23,02,19,12.80
2018,05,23,02,20,12.80
2018,05,23,02,21,12.80
2018,05,23,02,22,12.80
2018,05,23,02,23,12.80
2018,05,23,02,24,12.80
2018,05,23,02,25,12.80
2018,05,23,02,26,12.80
2018,05,23,02,27,12.80
2018,05,23,02,28,12.80
2018,05,23,02,29,12.80
2018,05,23,02,30,12.70
2018,05,23,02,31,12.70
2018,05,23,02,32,12.70
2018,05,23,02,33,12.70
2018,05,23,02,34,12.70
2018,05,23,02,35,12.70
2018,05,23,02,36,12.70
2018,05,23,02,37,12.70
2018,05,23,02,38,12.70
2018,05,23,02,39,12.70
2018,05,23,02,40,12.60
2018,05,23,02,41,12.60
2018,05,23,02,42,12.60
2018,05,23,02,43,12.60
2018,05,23,02,44,12.60
2018,05,23,02,45,12.50
2018,05,23,02,46,12.50
2018,05,23,02,47,12.50
2018,05,23,02,48,12.50
2018,05,23,02,49,12.60
2018,05,23,02,50,12.60
2018,05,23,02,51,12.60
2018,05,23,02,52,12.60
2018,05,23,02,53,12.60
2018,05,23,02,54,12.60
2018,05,23,02,55,12.60
2018,05,23,02,56,12.60
2018,05,23,02,57,12.60
2018,05,23,02,58,12.60
2018,05,23,02,59,12.60
2018,05,23,03,00,12.50
2018,05,23,03,01,12.50
2018,05,23,03,02,12.50
2018,05,23,03,03,12.50
2018,05,23,03,04,12.40
2018,05,23,03,05,12.40
2018,05,23,03,06,12.40
2018,05,23,03,07,12.40
2018,05,23,03,08,12.30
2018,05,23,03,09,12.30
2018,05,23,03,10,12.30
2018,05,23,03,11,12.30
2018,05,23,03,12,12.30
2018,05,23,03,13,12.30
2018,05,23,03,14,12.30
2018,05,23,03,15,12.30
2018,05,23,03,16,12.30
2018,05,23,03,17,12.30
2018,05,23,03,18,12.30
2018,05,23,03,19,12.30
2018,05,23,03,20,12.30
2018,05,23,03,21,12.30
2018,05,23,03,22,12.30
2018,05,23,03,23,12.30
2018,05,23,03,24,12.20
2018,05,23,03,25,12.10
2018,05,23,03,26,12.10
2018,05,23,03,27,12.00
2018,05,23,03,28,12.00
2018,05,23,03,29,12.00
2018,05,23,03,30,12.00
2018,05,23,03,31,12.00
2018,05,23,03,32,12.00
2018,05,23,03,33,11.90
2018,05,23,03,34,11.90
2018,05,23,03,35,11.90
2018,05,23,03,36,11.90
2018,05,23,03,37,11.90
2018,05,23,03,38,11.80
2018,05,23,03,39,11.80
2018,05,23,03,40,11.80
2018,05,23,03,41,11.80
2018,05,23,03,42,11.80
2018,05,23,03,43,11.80
2018,05,23,03,44,11.80
2018,05,23,03,45,11.80
2018,05,23,03,46,11.80
2018,05,23,03,47,11.80
2018,05,23,03,48,11.80
2018,05,23,03,49,11.80
2018,05,23,03,50,11.80
2018,05,23,03,51,11.80
2018,05,23,03,52,11.80
2018,05,23,03,53,11.80
2018,05,23,03,54,11.80
2018,05,23,03,55,11.80
2018,05,23,03,56,11.80
2018,05,23,03,57,11.80
2018,05,23,03,58,11.80
2018,05,23,03,59,11.80
2018,05,23,04,00,11.80
2018,05,23,04,01,11.80
2018,05,23,04,02,11.80
2018,05,23,04,03,11.80
2018,05,23,04,04,11.80
2018,05,23,04,05,11.80
2018,05,23,04,06,11.80
2018,05,23,04,07,11.80
2018,05,23,04,08,11.80
2018,05,23,04,09,11.80
2018,05,23,04,10,11.80
2018,05,23,04,11,11.80
2018,05,23,04,12,11.70
2018,05,23,04,13,11.70
2018,05,23,04,14,11.70
2018,05,23,04,15,11.70
2018,05,23,04,16,11.70
2018,05,23,04,17,11.70
2018,05,23,04,18,11.60
2018,05,23,04,19,11.60
2018,05,23,04,20,11.60
2018,05,23,04,21,11.60
2018,05,23,04,22,11.60
2018,05,23,04,23,11.60
2018,05,23,04,24,11.60
2018,05,23,04,25,11.60
2018,05,23,04,26,11.60
2018,05,23,04,27,11.60
2018,05,23,04,28,11.60
2018,05,23,04,29,11.60
2018,05,23,04,30,11.60
2018,05,23,04,31,11.60
2018,05,23,04,32,11.60
2018,05,23,04,33,11.60
2018,05,23,04,34,11.60
2018,05,23,04,35,11.60
2018,05,23,04,36,11.60
2018,05,23,04,37,11.60
2018,05,23,04,38,11.60
2018,05,23,04,39,11.60
2018,05,23,04,40,11.60
2018,05,23,04,41,11.60
2018,05,23,04,42,11.50
2018,05,23,04,43,11.40
2018,05,23,04,44,11.40
2018,05,23,04,45,11.40
2018,05,23,04,46,11.40
2018,05,23,04,47,11.40
2018,05,23,04,48,11.40
2018,05,23,04,49,11.40
2018,05,23,04,50,11.40
2018,05,23,04,51,11.40
2018,05,23,04,52,11.40
2018,05,23,04,53,11.40
2018,05,23,04,54,11.40
2018,05,23,04,55,11.40
2018,05,23,04,56,11.40
2018,05,23,04,57,11.40
2018,05,23,04,58,11.30
2018,05,23,04,59,11.40
2018,05,23,05,00,11.40
2018,05,23,05,01,11.40
2018,05,23,05,02,11.40
2018,05,23,05,03,11.40
2018,05,23,05,04,11.40
2018,05,23,05,05,11.50
2018,05,23,05,06,11.60
2018,05,23,05,07,11.60
2018,05,23,05,08,11.60
2018,05,23,05,09,11.50
2018,05,23,05,10,11.40
2018,05,23,05,11,11.40
2018,05,23,05,12,11.40
2018,05,23,05,13,11.40
2018,05,23,05,14,11.40
2018,05,23,05,15,11.40
2018,05,23,05,16,11.40
2018,05,23,05,17,11.40
2018,05,23,05,18,11.40
2018,05,23,05,19,11.30
2018,05,23,05,20,11.30
2018,05,23,05,21,11.30
2018,05,23,05,22,11.30
2018,05,23,05,23,11.30
2018,05,23,05,24,11.30
2018,05,23,05,25,11.30
2018,05,23,05,26,11.30
2018,05,23,05,27,11.20
2018,05,23,05,28,11.20
2018,05,23,05,29,11.20
2018,05,23,05,30,11.20
2018,05,23,05,31,11.20
2018,05,23,05,32,11.20
2018,05,23,05,33,11.20
2018,05,23,05,34,11.20
2018,05,23,05,35,11.20
2018,05,23,05,36,11.20
2018,05,23,05,37,11.20
2018,05,23,05,38,11.20
2018,05,23,05,39,11.20
2018,05,23,05,40,11.10
2018,05,23,05,41,11.10
2018,05,23,05,42,11.10
2018,05,23,05,43,11.10
2018,05,23,05,44,11.10
2018,05,23,05,45,11.10
2018,05,23,05,46,11.10
2018,05,23,05,47,11.10
2018,05,23,05,48,11.10
2018,05,23,05,49,11.10
2018,05,23,05,50,11.10
2018,05,23,05,51,11.10
2018,05,23,05,52,11.10
2018,05,23,05,53,11.10
2018,05,23,05,54,11.10
2018,05,23,05,55,11.10
2018,05,23,05,56,11.10
2018,05,23,05,57,11.10
2018,05,23,05,58,11.10
2018,05,23,05,59,11.10
2018,05,23,06,00,11.10
2018,05,23,06,01,11.10
2018,05,23,06,02,11.10
2018,05,23,06,03,11.10
2018,05,23,06,04,11.10
2018,05,23,06,05,11.10
2018,05,23,06,06,11.10
2018,05,23,06,07,11.10
2018,05,23,06,08,11.00
2018,05,23,06,09,10.90
2018,05,23,06,10,10.90
2018,05,23,06,11,10.90
2018,05,23,06,12,11.00
2018,05,23,06,13,11.10
2018,05,23,06,14,11.10
2018,05,23,06,15,11.10
2018,05,23,06,16,11.10
2018,05,23,06,17,11.10
2018,05,23,06,18,11.10
2018,05,23,06,19,11.20
2018,05,23,06,20,11.20
2018,05,23,06,21,11.20
2018,05,23,06,22,11.20
2018,05,23,06,23,11.30
2018,05,23,06,24,11.30
2018,05,23,06,25,11.30
2018,05,23,06,26,11.40
2018,05,23,06,27,11.40
2018,05,23,06,28,11.40
2018,05,23,06,29,11.40
2018,05,23,06,30,11.40
2018,05,23,06,31,11.40
2018,05,23,06,32,11.60
2018,05,23,06,33,11.60
2018,05,23,06,34,11.60
2018,05,23,06,35,11.60
2018,05,23,06,36,11.60
2018,05,23,06,37,11.60
2018,05,23,06,38,11.60
2018,05,23,06,39,11.70
2018,05,23,06,40,11.70
2018,05,23,06,41,11.70
2018,05,23,06,42,11.80
2018,05,23,06,43,11.80
2018,05,23,06,44,11.90
2018,05,23,06,45,11.90
2018,05,23,06,46,12.00
2018,05,23,06,47,12.00
2018,05,23,06,48,12.10
2018,05,23,06,49,12.20
2018,05,23,06,50,12.20
2018,05,23,06,51,12.30
2018,05,23,06,52,12.30
2018,05,23,06,53,12.40
2018,05,23,06,54,12.40
2018,05,23,06,55,12.50
2018,05,23,06,56,12.50
2018,05,23,06,57,12.60
2018,05,23,06,58,12.60
2018,05,23,06,59,12.70
2018,05,23,07,00,12.70
2018,05,23,07,01,12.80
2018,05,23,07,02,12.80
2018,05,23,07,03,12.80
2018,05,23,07,04,12.90
2018,05,23,07,05,13.00
2018,05,23,07,06,13.10
2018,05,23,07,07,13.10
2018,05,23,07,08,13.20
2018,05,23,07,09,13.30
2018,05,23,07,10,13.30
2018,05,23,07,11,13.40
2018,05,23,07,12,13.50
2018,05,23,07,13,13.50
2018,05,23,07,14,13.60
2018,05,23,07,15,13.60
2018,05,23,07,16,13.60
2018,05,23,07,17,13.70
2018,05,23,07,18,13.70
2018,05,23,07,19,13.70
2018,05,23,07,20,13.80
2018,05,23,07,21,13.80
2018,05,23,07,22,13.90
2018,05,23,07,23,14.00
2018,05,23,07,24,14.00
2018,05,23,07,25,14.10
2018,05,23,07,26,14.20
2018,05,23,07,27,14.20
2018,05,23,07,28,14.30
2018,05,23,07,29,14.40
2018,05,23,07,30,14.50
2018,05,23,07,31,14.50
2018,05,23,07,32,14.50
2018,05,23,07,33,14.50
2018,05,23,07,34,14.60
2018,05,23,07,35,14.60
2018,05,23,07,36,14.60
2018,05,23,07,37,14.60
2018,05,23,07,38,14.60
2018,05,23,07,39,14.50
2018,05,23,07,40,14.50
2018,05,23,07,41,14.60
2018,05,23,07,42,14.60
2018,05,23,07,43,14.60
2018,05,23,07,44,14.70
2018,05,23,07,45,14.70
2018,05,23,07,46,14.70
2018,05,23,07,47,14.70
2018,05,23,07,48,14.70
2018,05,23,07,49,14.70
2018,05,23,07,50,14.70
2018,05,23,07,51,14.80
2018,05,23,07,52,14.80
2018,05,23,07,53,14.90
2018,05,23,07,54,15.00
2018,05,23,07,55,15.00
2018,05,23,07,56,15.10
2018,05,23,07,57,15.20
2018,05,23,07,58,15.30
2018,05,23,07,59,15.40
2018,05,23,08,00,15.40
2018,05,23,08,01,15.50
2018,05,23,08,02,15.60
2018,05,23,08,03,15.60
2018,05,23,08,04,15.70
2018,05,23,08,05,15.70
2018,05,23,08,06,15.70
2018,05,23,08,07,15.70
2018,05,23,08,08,15.60
2018,05,23,08,09,15.60
2018,05,23,08,10,15.50
2018,05,23,08,11,15.40
2018,05,23,08,12,15.40
2018,05,23,08,13,15.40
2018,05,23,08,14,15.50
2018,05,23,08,15,15.50
2018,05,23,08,16,15.50
2018,05,23,08,17,15.60
2018,05,23,08,18,15.70
2018,05,23,08,19,15.80
2018,05,23,08,20,15.80
2018,05,23,08,21,15.90
2018,05,23,08,22,16.00
2018,05,23,08,23,16.10
2018,05,23,08,24,16.10
2018,05,23,08,25,16.10
2018,05,23,08,26,16.20
2018,05,23,08,27,16.20
2018,05,23,08,28,16.30
2018,05,23,08,29,16.30
2018,05,23,08,30,16.20
2018,05,23,08,31,16.20
2018,05,23,08,32,16.30
2018,05,23,08,33,16.30
2018,05,23,08,34,16.40
2018,05,23,08,35,16.40
2018,05,23,08,36,16.40
2018,05,23,08,37,16.50
2018,05,23,08,38,16.60
2018,05,23,08,39,16.70
2018,05,23,08,40,16.70
2018,05,23,08,41,16.80
2018,05,23,08,42,16.90
2018,05,23,08,43,16.90
2018,05,23,08,44,16.90
2018,05,23,08,45,16.90
2018,05,23,08,46,16.80
2018,05,23,08,47,16.80
2018,05,23,08,48,16.70
2018,05,23,08,49,16.70
2018,05,23,08,50,16.70
2018,05,23,08,51,16.70
2018,05,23,08,52,16.80
2018,05,23,08,53,16.80
2018,05,23,08,54,16.80
2018,05,23,08,55,16.80
2018,05,23,08,56,16.80
2018,05,23,08,57,16.80
2018,05,23,08,58,16.80
2018,05,23,08,59,16.90
2018,05,23,09,00,16.90
2018,05,23,09,01,16.90
2018,05,23,09,02,16.90
2018,05,23,09,03,16.90
2018,05,23,09,04,16.90
2018,05,23,09,05,16.90
2018,05,23,09,06,16.90
2018,05,23,09,07,16.90
2018,05,23,09,08,16.90
2018,05,23,09,09,16.90
2018,05,23,09,10,16.90
2018,05,23,09,11,17.00
2018,05,23,09,12,17.00
2018,05,23,09,13,17.10
2018,05,23,09,14,17.20
2018,05,23,09,15,17.10
2018,05,23,09,16,17.10
2018,05,23,09,17,17.10
2018,05,23,09,18,17.20
2018,05,23,09,19,17.30
2018,05,23,09,20,17.30
2018,05,23,09,21,17.30
2018,05,23,09,22,17.30
2018,05,23,09,23,17.30
2018,05,23,09,24,17.30
2018,05,23,09,25,17.40
2018,05,23,09,26,17.40
2018,05,23,09,27,17.40
2018,05,23,09,28,17.50
2018,05,23,09,29,17.50
2018,05,23,09,30,17.50
2018,05,23,09,31,17.50
2018,05,23,09,32,17.50
2018,05,23,09,33,17.50
2018,05,23,09,34,17.50
2018,05,23,09,35,17.50
2018,05,23,09,36,17.50
2018,05,23,09,37,17.50
2018,05,23,09,38,17.50
2018,05,23,09,39,17.50
2018,05,23,09,40,17.50
2018,05,23,09,41,17.60
2018,05,23,09,42,17.50
2018,05,23,09,43,17.60
2018,05,23,09,44,17.60
2018,05,23,09,45,17.60
2018,05,23,09,46,17.70
2018,05,23,09,47,17.60
2018,05,23,09,48,17.60
2018,05,23,09,49,17.60
2018,05,23,09,50,17.60
2018,05,23,09,51,17.60
2018,05,23,09,52,17.70
2018,05,23,09,53,17.60
2018,05,23,09,54,17.60
2018,05,23,09,55,17.60
2018,05,23,09,56,17.50
2018,05,23,09,57,17.50
2018,05,23,09,58,17.50
2018,05,23,09,59,17.70
2018,05,23,10,00,17.70
2018,05,23,10,01,17.70
2018,05,23,10,02,17.70
2018,05,23,10,03,17.80
2018,05,23,10,04,17.80
2018,05,23,10,05,17.90
2018,05,23,10,06,17.90
2018,05,23,10,07,17.90
2018,05,23,10,08,17.90
2018,05,23,10,09,18.00
2018,05,23,10,10,18.10
2018,05,23,10,11,18.20
2018,05,23,10,12,18.30
2018,05,23,10,13,18.30
2018,05,23,10,14,18.30
2018,05,23,10,15,18.40
2018,05,23,10,16,18.40
2018,05,23,10,17,18.50
2018,05,23,10,18,18.60
2018,05,23,10,19,18.60
2018,05,23,10,20,18.60
2018,05,23,10,21,18.60
2018,05,23,10,22,18.60
2018,05,23,10,23,18.60
2018,05,23,10,24,18.60
2018,05,23,10,25,18.70
2018,05,23,10,26,18.80
2018,05,23,10,27,18.70
2018,05,23,10,28,18.60
2018,05,23,10,29,18.60
2018,05,23,10,30,18.60
2018,05,23,10,31,18.50
2018,05,23,10,32,18.60
2018,05,23,10,33,18.60
2018,05,23,10,34,18.80
2018,05,23,10,35,18.90
2018,05,23,10,36,18.90
2018,05,23,10,37,18.90
2018,05,23,10,38,18.90
2018,05,23,10,39,18.90
2018,05,23,10,40,18.90
2018,05,23,10,41,18.90
2018,05,23,10,42,19.10
2018,05,23,10,43,19.10
2018,05,23,10,44,19.10
2018,05,23,10,45,19.20
2018,05,23,10,46,19.30
2018,05,23,10,47,19.50
2018,05,23,10,48,19.50
2018,05,23,10,49,19.50
2018,05,23,10,50,19.40
2018,05,23,10,51,19.40
2018,05,23,10,52,19.40
2018,05,23,10,53,19.40
2018,05,23,10,54,19.40
2018,05,23,10,55,19.50
2018,05,23,10,56,19.60
2018,05,23,10,57,19.50
2018,05,23,10,58,19.50
2018,05,23,10,59,19.40
2018,05,23,11,00,19.40
2018,05,23,11,01,19.50
2018,05,23,11,02,19.60
2018,05,23,11,03,19.60
2018,05,23,11,04,19.50
2018,05,23,11,05,19.40
2018,05,23,11,06,19.40
2018,05,23,11,07,19.40
2018,05,23,11,08,19.40
2018,05,23,11,09,19.40
2018,05,23,11,10,19.40
2018,05,23,11,11,19.40
2018,05,23,11,12,19.50
2018,05,23,11,13,19.60
2018,05,23,11,14,19.70
2018,05,23,11,15,19.70
2018,05,23,11,16,19.90
2018,05,23,11,17,19.90
2018,05,23,11,18,20.10
2018,05,23,11,19,20.20
2018,05,23,11,20,20.20
2018,05,23,11,21,20.40
2018,05,23,11,22,20.50
2018,05,23,11,23,20.60
2018,05,23,11,24,20.60
2018,05,23,11,25,20.70
2018,05,23,11,26,20.90
2018,05,23,11,27,21.00
2018,05,23,11,28,21.10
2018,05,23,11,29,21.20
2018,05,23,11,30,21.20
2018,05,23,11,31,21.30
2018,05,23,11,32,21.40
2018,05,23,11,33,21.40
2018,05,23,11,34,21.30
2018,05,23,11,35,21.30
2018,05,23,11,36,21.30
2018,05,23,11,37,21.30
2018,05,23,11,38,21.30
2018,05,23,11,39,21.20
2018,05,23,11,40,21.20
2018,05,23,11,41,21.30
2018,05,23,11,42,21.40
2018,05,23,11,43,21.40
2018,05,23,11,44,21.40
2018,05,23,11,45,21.40
2018,05,23,11,46,21.50
2018,05,23,11,47,21.60
2018,05,23,11,48,21.60
2018,05,23,11,49,21.60
2018,05,23,11,50,21.60
2018,05,23,11,51,21.60
2018,05,23,11,52,21.60
2018,05,23,11,53,21.50
2018,05,23,11,54,21.40
2018,05,23,11,55,21.40
2018,05,23,11,56,21.30
2018,05,23,11,57,21.30
2018,05,23,11,58,21.40
2018,05,23,11,59,21.40
2018,05,23,12,00,21.40
2018,05,23,12,01,21.30
2018,05,23,12,02,21.30
2018,05,23,12,03,21.30
2018,05,23,12,04,21.20
2018,05,23,12,05,21.00
2018,05,23,12,06,20.90
2018,05,23,12,07,20.90
2018,05,23,12,08,20.80
2018,05,23,12,09,20.80
2018,05,23,12,10,20.70
2018,05,23,12,11,20.70
2018,05,23,12,12,20.60
2018,05,23,12,13,20.50
2018,05,23,12,14,20.40
2018,05,23,12,15,20.50
2018,05,23,12,16,20.50
2018,05,23,12,17,20.60
2018,05,23,12,18,20.60
2018,05,23,12,19,20.70
2018,05,23,12,20,20.70
2018,05,23,12,21,20.80
2018,05,23,12,22,20.80
2018,05,23,12,23,21.00
2018,05,23,12,24,21.10
2018,05,23,12,25,21.20
2018,05,23,12,26,21.30
2018,05,23,12,27,21.40
2018,05,23,12,28,21.40
2018,05,23,12,29,21.30
2018,05,23,12,30,21.30
2018,05,23,12,31,21.10
2018,05,23,12,32,21.00
2018,05,23,12,33,21.00
2018,05,23,12,34,21.00
2018,05,23,12,35,21.00
2018,05,23,12,36,21.10
2018,05,23,12,37,21.20
2018,05,23,12,38,21.20
2018,05,23,12,39,21.30
2018,05,23,12,40,21.30
2018,05,23,12,41,21.30
2018,05,23,12,42,21.30
2018,05,23,12,43,21.30
2018,05,23,12,44,21.30
2018,05,23,12,45,21.30
2018,05,23,12,46,21.40
2018,05,23,12,47,21.40
2018,05,23,12,48,21.40
2018,05,23,12,49,21.40
2018,05,23,12,50,21.50
2018,05,23,12,51,21.60
2018,05,23,12,52,21.60
2018,05,23,12,53,21.60
2018,05,23,12,54,21.50
2018,05,23,12,55,21.40
2018,05,23,12,56,21.30
2018,05,23,12,57,21.30
2018,05,23,12,58,21.30
2018,05,23,12,59,21.30
2018,05,23,13,00,21.30
2018,05,23,13,01,21.20
2018,05,23,13,02,21.20
2018,05,23,13,03,21.20
2018,05,23,13,04,21.30
2018,05,23,13,05,21.30
2018,05,23,13,06,21.50
2018,05,23,13,07,21.70
2018,05,23,13,08,21.90
2018,05,23,13,09,22.00
2018,05,23,13,10,22.20
2018,05,23,13,11,22.30
2018,05,23,13,12,22.50
2018,05,23,13,13,22.50
2018,05,23,13,14,22.50
2018,05,23,13,15,22.50
2018,05,23,13,16,22.50
2018,05,23,13,17,22.50
2018,05,23,13,18,22.40
2018,05,23,13,19,22.30
2018,05,23,13,20,22.40
2018,05,23,13,21,22.40
2018,05,23,13,22,22.40
2018,05,23,13,23,22.40
2018,05,23,13,24,22.40
2018,05,23,13,25,22.60
2018,05,23,13,26,22.60
2018,05,23,13,27,22.70
2018,05,23,13,28,22.90
2018,05,23,13,29,22.90
2018,05,23,13,30,22.80
2018,05,23,13,31,22.90
2018,05,23,13,32,22.90
2018,05,23,13,33,22.90
2018,05,23,13,34,22.80
2018,05,23,13,35,22.70
2018,05,23,13,36,22.40
2018,05,23,13,37,22.20
2018,05,23,13,38,22.10
2018,05,23,13,39,22.00
2018,05,23,13,40,21.90
2018,05,23,13,41,22.00
2018,05,23,13,42,22.10
2018,05,23,13,43,22.20
2018,05,23,13,44,22.30
2018,05,23,13,45,22.30
2018,05,23,13,46,22.30
2018,05,23,13,47,22.40
2018,05,23,13,48,22.40
2018,05,23,13,49,22.40
2018,05,23,13,50,22.50
2018,05,23,13,51,22.60
2018,05,23,13,52,22.60
2018,05,23,13,53,22.60
2018,05,23,13,54,22.50
2018,05,23,13,55,22.60
2018,05,23,13,56,22.70
2018,05,23,13,57,22.80
2018,05,23,13,58,22.60
2018,05,23,13,59,22.50
2018,05,23,14,00,22.30
2018,05,23,14,01,22.30
2018,05,23,14,02,22.30
2018,05,23,14,03,22.30
2018,05,23,14,04,22.20
2018,05,23,14,05,22.20
2018,05,23,14,06,22.30
2018,05,23,14,07,22.30
2018,05,23,14,08,22.40
2018,05,23,14,09,22.50
2018,05,23,14,10,22.60
2018,05,23,14,11,22.70
2018,05,23,14,12,22.70
2018,05,23,14,13,22.80
2018,05,23,14,14,22.90
2018,05,23,14,15,22.90
2018,05,23,14,16,22.90
2018,05,23,14,17,22.80
2018,05,23,14,18,22.70
2018,05,23,14,19,22.50
2018,05,23,14,20,22.30
2018,05,23,14,21,22.20
2018,05,23,14,22,22.10
2018,05,23,14,23,22.00
2018,05,23,14,24,21.90
2018,05,23,14,25,21.90
2018,05,23,14,26,21.90
2018,05,23,14,27,21.80
2018,05,23,14,28,21.80
2018,05,23,14,29,21.90
2018,05,23,14,30,22.00
2018,05,23,14,31,21.90
2018,05,23,14,32,21.80
2018,05,23,14,33,21.80
2018,05,23,14,34,21.80
2018,05,23,14,35,21.70
2018,05,23,14,36,21.70
2018,05,23,14,37,21.70
2018,05,23,14,38,21.70
2018,05,23,14,39,21.80
2018,05,23,14,40,21.90
2018,05,23,14,41,21.90
2018,05,23,14,42,22.00
2018,05,23,14,43,22.00
2018,05,23,14,44,22.00
2018,05,23,14,45,22.00
2018,05,23,14,46,22.20
2018,05,23,14,47,22.30
2018,05,23,14,48,22.40
2018,05,23,14,49,22.50
2018,05,23,14,50,22.60
2018,05,23,14,51,22.70
2018,05,23,14,52,22.80
2018,05,23,14,53,22.90
2018,05,23,14,54,23.00
2018,05,23,14,55,23.10
2018,05,23,14,56,23.00
2018,05,23,14,57,22.90
2018,05,23,14,58,22.90
2018,05,23,14,59,22.90
2018,05,23,15,00,22.80
2018,05,23,15,01,22.80
2018,05,23,15,02,22.80
2018,05,23,15,03,22.70
2018,05,23,15,04,22.70
2018,05,23,15,05,22.60
2018,05,23,15,06,22.70
2018,05,23,15,07,22.80
2018,05,23,15,08,22.90
2018,05,23,15,09,23.00
2018,05,23,15,10,23.10
2018,05,23,15,11,23.10
2018,05,23,15,12,23.10
2018,05,23,15,13,23.10
2018,05,23,15,14,23.20
2018,05,23,15,15,23.30
2018,05,23,15,16,23.30
2018,05,23,15,17,23.30
2018,05,23,15,18,23.20
2018,05,23,15,19,23.30
2018,05,23,15,20,23.40
2018,05,23,15,21,23.50
2018,05,23,15,22,23.60
2018,05,23,15,23,23.60
2018,05,23,15,24,23.70
2018,05,23,15,25,23.80
2018,05,23,15,26,23.90
2018,05,23,15,27,23.90
2018,05,23,15,28,24.00
2018,05,23,15,29,24.10
2018,05,23,15,30,24.10
2018,05,23,15,31,24.10
2018,05,23,15,32,24.10
2018,05,23,15,33,24.10
2018,05,23,15,34,24.10
2018,05,23,15,35,24.20
2018,05,23,15,36,24.20
2018,05,23,15,37,24.30
2018,05,23,15,38,24.30
2018,05,23,15,39,24.30
2018,05,23,15,40,24.30
2018,05,23,15,41,24.30
2018,05,23,15,42,24.40
2018,05,23,15,43,24.50
2018,05,23,15,44,24.50
2018,05,23,15,45,24.50
2018,05,23,15,46,24.60
2018,05,23,15,47,24.60
2018,05,23,15,48,24.50
2018,05,23,15,49,24.50
2018,05,23,15,50,24.50
2018,05,23,15,51,24.50
2018,05,23,15,52,24.40
2018,05,23,15,53,24.30
2018,05,23,15,54,24.20
2018,05,23,15,55,24.10
2018,05,23,15,56,23.90
2018,05,23,15,57,23.80
2018,05,23,15,58,23.80
2018,05,23,15,59,23.70
2018,05,23,16,00,23.70
2018,05,23,16,01,23.70
2018,05,23,16,02,23.70
2018,05,23,16,03,23.70
2018,05,23,16,04,23.70
2018,05,23,16,05,23.70
2018,05,23,16,06,23.70
2018,05,23,16,07,23.70
2018,05,23,16,08,23.70
2018,05,23,16,09,23.70
2018,05,23,16,10,23.70
2018,05,23,16,11,23.70
2018,05,23,16,12,23.70
2018,05,23,16,13,23.90
2018,05,23,16,14,24.00
2018,05,23,16,15,24.10
2018,05,23,16,16,24.10
2018,05,23,16,17,24.30
2018,05,23,16,18,24.40
2018,05,23,16,19,24.40
2018,05,23,16,20,24.40
2018,05,23,16,21,24.50
2018,05,23,16,22,24.50
2018,05,23,16,23,24.50
2018,05,23,16,24,24.50
2018,05,23,16,25,24.50
2018,05,23,16,26,24.50
2018,05,23,16,27,24.40
2018,05,23,16,28,24.40
2018,05,23,16,29,24.40
2018,05,23,16,30,24.30
2018,05,23,16,31,24.20
2018,05,23,16,32,24.10
2018,05,23,16,33,24.10
2018,05,23,16,34,24.10
2018,05,23,16,35,24.10
2018,05,23,16,36,24.20
2018,05,23,16,37,24.20
2018,05,23,16,38,24.20
2018,05,23,16,39,24.20
2018,05,23,16,40,24.10
2018,05,23,16,41,24.20
2018,05,23,16,42,24.10
2018,05,23,16,43,24.10
2018,05,23,16,44,24.10
2018,05,23,16,45,24.20
2018,05,23,16,46,24.30
2018,05,23,16,47,24.40
2018,05,23,16,48,24.40
2018,05,23,16,49,24.40
2018,05,23,16,50,24.40
2018,05,23,16,51,24.40
2018,05,23,16,52,24.40
2018,05,23,16,53,24.50
2018,05,23,16,54,24.50
2018,05,23,16,55,24.50
2018,05,23,16,56,24.50
2018,05,23,16,57,24.50
2018,05,23,16,58,24.60
2018,05,23,16,59,24.70
2018,05,23,17,00,24.70
2018,05,23,17,01,24.80
2018,05,23,17,02,24.80
2018,05,23,17,03,24.70
2018,05,23,17,04,24.70
2018,05,23,17,05,24.70
2018,05,23,17,06,24.80
2018,05,23,17,07,24.80
2018,05,23,17,08,24.80
2018,05,23,17,09,24.90
2018,05,23,17,10,24.90
2018,05,23,17,11,24.90
2018,05,23,17,12,24.90
2018,05,23,17,13,24.90
2018,05,23,17,14,24.90
2018,05,23,17,15,24.90
2018,05,23,17,16,24.80
2018,05,23,17,17,24.70
2018,05,23,17,18,24.60
2018,05,23,17,19,24.60